Location: Newark
(49.2994°N, 22.5236°E)
Time: 11:01:06
(UTC+00:00)

ISS - Visible Passes

Search period start: 25 September 2020 00:00
Search period end: 05 October 2020 00:00
Orbit: 419 x 420 km, 51.6° (Epoch: 25 September)

Date Brightness Start Highest point End Pass type
(mag) Time Alt. Az. Time Alt. Az. Time Alt. Az.
25 Sep -3.4 17:23:17 10° W 17:26:39 62° N 17:29:12 16° ENE visible
25 Sep -1.7 19:00:20 10° WNW 19:02:10 29° WNW 19:02:10 29° WNW visible
26 Sep -3.5 18:12:54 10° WNW 18:16:14 57° N 18:16:31 55° NNE visible
27 Sep -3.3 17:25:27 10° W 17:28:46 55° N 17:30:52 20° ENE visible
27 Sep -1.4 19:02:21 10° WNW 19:03:50 24° WNW 19:03:50 24° WNW visible
28 Sep -3.7 18:14:56 10° WNW 18:18:10 74° NNW 18:18:10 74° NNW visible
29 Sep -3.6 17:27:29 10° WNW 17:30:51 64° N 17:32:31 27° E visible
29 Sep -1.0 19:04:23 10° WNW 19:05:29 18° W 19:05:29 18° W visible
30 Sep -3.4 16:40:00 10° WNW 16:43:20 57° N 16:46:41 10° E visible
30 Sep -3.3 18:16:53 10° WNW 18:19:50 56° WSW 18:19:50 56° WSW visible
01 Oct -3.8 17:29:25 10° WNW 17:32:48 85° SSW 17:34:14 32° ESE visible
01 Oct -0.6 19:06:40 10° W 19:07:12 13° W 19:07:12 13° W visible
02 Oct -3.7 16:41:56 10° WNW 16:45:20 77° NNE 16:48:40 10° ESE visible
02 Oct -2.2 18:18:57 10° W 18:21:38 29° SW 18:21:38 29° SW visible
03 Oct -2.9 17:31:21 10° WNW 17:34:35 44° SSW 17:36:07 25° SSE visible
04 Oct -3.4 16:43:49 10° WNW 16:47:10 62° SSW 16:50:30 10° SE visible
04 Oct -1.1 18:21:37 10° WSW 18:23:27 14° SW 18:23:39 14° SW visible
